,,,PA_Meas_PMT16A,,PR_Meas_QMR101_102,,RH_Meas_QMH101,,SR_Meas_QMS101,,TA_Meas_QMH101,,GenWind,,GenWind,
date,time,status,PA,status,PR,status,RH,status,SR,status,TA,status,DirAvg,status,SpdAvg,
2008-07-07, 00:00:04,VALID,1008.37,VALID,0,VALID,90.7541,VALID,0,VALID,25.4462,VALID,173,VALID,0.860156,
2008-07-07, 00:01:04,VALID,1008.4,VALID,0,VALID,90.7693,VALID,0,VALID,25.4462,VALID,157,VALID,1.0793,
2008-07-07, 00:02:04,VALID,1008.37,VALID,0,VALID,90.7846,VALID,0,VALID,25.4482,VALID,177,VALID,0.508594,
2008-07-07, 00:03:04,VALID,1008.4,VALID,0,VALID,90.8532,VALID,0,VALID,25.4287,VALID,168,VALID,0.817578,
2008-07-07, 00:04:04,VALID,1008.37,VALID,0,VALID,90.9905,VALID,0,VALID,25.3877,VALID,159,VALID,0.879297,
2008-07-07, 00:05:04,VALID,1008.42,VALID,0,VALID,91.0134,VALID,0,VALID,25.4287,VALID,175,VALID,1.13008,
2008-07-07, 00:06:04,VALID,1008.4,VALID,0,VALID,90.9066,VALID,0,VALID,25.4072,VALID,168,VALID,0.947656,
2008-07-07, 00:07:04,VALID,1008.41,VALID,0,VALID,90.9295,VALID,0,VALID,25.4072,VALID,166,VALID,1.01641,
2008-07-07, 00:08:04,VALID,1008.39,VALID,0,VALID,90.9981,VALID,0,VALID,25.4287,VALID,175,VALID,1.16875,
2008-07-07, 00:09:04,VALID,1008.4,VALID,0,VALID,90.9752,VALID,0,VALID,25.4287,VALID,178,VALID,1.12969,
2008-07-07, 00:10:04,VALID,1008.39,VALID,0,VALID,90.9371,VALID,0.105969,VALID,25.4287,VALID,178,VALID,1.11484,
2008-07-07, 00:11:04,VALID,1008.4,VALID,0,VALID,90.8685,VALID,0,VALID,25.4287,VALID,184,VALID,1.01328,
2008-07-07, 00:12:04,VALID,1008.42,VALID,0,VALID,90.7617,VALID,0,VALID,25.4072,VALID,179,VALID,0.617969,
2008-07-07, 00:13:04,VALID,1008.44,VALID,0,VALID,90.9905,VALID,0,VALID,25.4267,VALID,168,VALID,0.964453,
2008-07-07, 00:14:04,VALID,1008.44,VALID,0,VALID,90.8227,VALID,0,VALID,25.4482,VALID,184,VALID,0.853906,
2008-07-07, 00:15:04,VALID,1008.45,VALID,0,VALID,90.8837,VALID,0,VALID,25.3877,VALID,167,VALID,0.499219,
2008-07-07, 00:16:04,VALID,1008.47,VALID,0,VALID,90.9295,VALID,0,VALID,25.3877,VALID,178,VALID,0.458203,
2008-07-07, 00:17:04,VALID,1008.49,VALID,0,VALID,91.021,VALID,0,VALID,25.3897,VALID,174,VALID,0.523047,
2008-07-07, 00:18:04,VALID,1008.46,VALID,0,VALID,91.082,VALID,0,VALID,25.3702,VALID,176,VALID,0.46875,
2008-07-07, 00:19:04,VALID,1008.47,VALID,0,VALID,91.2574,VALID,0,VALID,25.3897,VALID,164,VALID,0.766406,
2008-07-07, 00:20:04,VALID,1008.46,VALID,0,VALID,91.2726,VALID,0,VALID,25.3897,VALID,161,VALID,1.04219,
2008-07-07, 00:21:04,VALID,1008.44,VALID,0,VALID,91.0134,VALID,0,VALID,25.4092,VALID,165,VALID,0.63125,
2008-07-07, 00:22:04,VALID,1008.43,VALID,0,VALID,91.0515,VALID,0,VALID,25.3897,VALID,153,VALID,0.420312,
2008-07-07, 00:23:04,VALID,1008.41,VALID,0,VALID,91.0973,VALID,0,VALID,25.3702,VALID,158,VALID,0.487891,
2008-07-07, 00:24:04,VALID,1008.42,VALID,0,VALID,91.1506,VALID,0,VALID,25.3098,VALID,180,VALID,0.592188,
2008-07-07, 00:25:04,VALID,1008.4,VALID,0,VALID,91.3642,VALID,0,VALID,25.3098,VALID,170,VALID,0.931641,
2008-07-07, 00:26:04,VALID,1008.41,VALID,0,VALID,91.3336,VALID,0,VALID,25.3312,VALID,157,VALID,0.736328,
2008-07-07, 00:27:04,VALID,1008.42,VALID,0,VALID,91.4099,VALID,0,VALID,25.2903,VALID,152,VALID,0.611719,
2008-07-07, 00:28:04,VALID,1008.4,VALID,0,VALID,91.4175,VALID,0,VALID,25.2922,VALID,163,VALID,0.560156,
2008-07-07, 00:29:04,VALID,1008.43,VALID,0,VALID,91.5167,VALID,0,VALID,25.2922,VALID,142,VALID,0.723828,
2008-07-07, 00:30:04,VALID,1008.45,VALID,0,VALID,91.509,VALID,0,VALID,25.2727,VALID,176,VALID,0.700781,
2008-07-07, 00:31:04,VALID,1008.44,VALID,0,VALID,91.6844,VALID,0,VALID,25.2727,VALID,159,VALID,0.607422,
2008-07-07, 00:32:04,VALID,1008.44,VALID,0,VALID,91.7988,VALID,0,VALID,25.2727,VALID,159,VALID,0.634766,
2008-07-07, 00:33:04,VALID,1008.45,VALID,0,VALID,91.6082,VALID,0,VALID,25.2922,VALID,160,VALID,0.282813,
2008-07-07, 00:34:04,VALID,1008.46,VALID,0,VALID,91.7149,VALID,0,VALID,25.2532,VALID,187,VALID,0.503516,
2008-07-07, 00:35:04,VALID,1008.45,VALID,0,VALID,91.7683,VALID,0,VALID,25.2532,VALID,182,VALID,0.815234,
2008-07-07, 00:36:04,VALID,1008.46,VALID,0,VALID,91.8217,VALID,0,VALID,25.2532,VALID,172,VALID,0.689062,
2008-07-07, 00:37:04,VALID,1008.46,VALID,0,VALID,91.7454,VALID,0,VALID,25.2941,VALID,163,VALID,0.625781,
2008-07-07, 00:38:04,VALID,1008.44,VALID,0,VALID,91.57,VALID,0,VALID,25.2727,VALID,163,VALID,0.334375,
2008-07-07, 00:39:04,VALID,1008.44,VALID,0,VALID,91.6387,VALID,0,VALID,25.2532,VALID,172,VALID,0.428906,
2008-07-07, 00:40:04,VALID,1008.47,VALID,0,VALID,91.7149,VALID,0,VALID,25.2337,VALID,178,VALID,0.362109,
2008-07-07, 00:41:04,VALID,1008.48,VALID,0,VALID,91.7836,VALID,0,VALID,25.2142,VALID,178,VALID,0.333203,
2008-07-07, 00:42:04,VALID,1008.5,VALID,0,VALID,91.7988,VALID,0,VALID,25.2142,VALID,178,VALID,0.124219,
2008-07-07, 00:43:04,VALID,1008.47,VALID,0,VALID,91.837,VALID,0,VALID,25.2142,VALID,178,VALID,0.0992187,
2008-07-07, 00:44:04,VALID,1008.48,VALID,0,VALID,91.9742,VALID,0,VALID,25.1947,VALID,178,VALID,0.233203,
2008-07-07, 00:45:04,VALID,1008.43,VALID,0,VALID,92.0428,VALID,0,VALID,25.1752,VALID,178,VALID,0.1625,
2008-07-07, 00:46:04,VALID,1008.46,VALID,0,VALID,92.0581,VALID,0,VALID,25.1752,VALID,178,VALID,0.280859,
2008-07-07, 00:47:04,VALID,1008.44,VALID,0,VALID,92.0047,VALID,0,VALID,25.1752,VALID,178,VALID,0.360938,
2008-07-07, 00:48:04,VALID,1008.42,VALID,0,VALID,91.898,VALID,0,VALID,25.1343,VALID,178,VALID,0.15625,
2008-07-07, 00:49:04,VALID,1008.39,VALID,0,VALID,92.1572,VALID,0,VALID,25.1557,VALID,178,VALID,0.267578,
2008-07-07, 00:50:04,VALID,1008.38,VALID,0,VALID,92.1725,VALID,0,VALID,25.1167,VALID,178,VALID,0.192188,
2008-07-07, 00:51:04,VALID,1008.42,VALID,0,VALID,92.1496,VALID,0,VALID,25.1167,VALID,178,VALID,0.207813,
2008-07-07, 00:52:04,VALID,1008.39,VALID,0,VALID,91.959,VALID,0,VALID,25.0778,VALID,177,VALID,0.244141,
2008-07-07, 00:53:04,VALID,1008.42,VALID,0,VALID,91.8751,VALID,0,VALID,25.0369,VALID,162,VALID,0.222266,
2008-07-07, 00:54:04,VALID,1008.4,VALID,0,VALID,91.8903,VALID,0,VALID,24.9998,VALID,162,VALID,0.0132813,
2008-07-07, 00:55:04,VALID,1008.4,VALID,0,VALID,92.2945,VALID,0,VALID,24.9784,VALID,162,VALID,0.0335938,
2008-07-07, 00:56:04,VALID,1008.41,VALID,0,VALID,92.4928,VALID,0,VALID,24.9803,VALID,162,VALID,0.0765625,
2008-07-07, 00:57:04,VALID,1008.43,VALID,0,VALID,91.8598,VALID,0,VALID,24.9023,VALID,162,VALID,0.237891,
2008-07-07, 00:58:04,VALID,1008.41,VALID,0,VALID,92.1496,VALID,0,VALID,24.8828,VALID,162,VALID,0.165234,
2008-07-07, 00:59:04,VALID,1008.43,VALID,0,VALID,92.508,VALID,0,VALID,24.8225,VALID,162,VALID,0,
2008-07-07, 01:00:04,VALID,1008.41,VALID,0,VALID,92.3936,VALID,0,VALID,24.8244,VALID,162,VALID,0,
2008-07-07, 01:01:04,VALID,1008.4,VALID,0,VALID,92.3708,VALID,0,VALID,24.7659,VALID,162,VALID,0,
2008-07-07, 01:02:04,VALID,1008.37,VALID,0,VALID,92.6682,VALID,0,VALID,24.7269,VALID,79,VALID,0,
2008-07-07, 01:03:04,VALID,1008.36,VALID,0,VALID,92.9351,VALID,0,VALID,24.686,VALID,79,VALID,0.280859,
2008-07-07, 01:04:04,VALID,1008.34,VALID,0,VALID,92.8512,VALID,0,VALID,24.6489,VALID,79,VALID,0.392578,
2008-07-07, 01:05:04,VALID,1008.36,VALID,0,VALID,93.0799,VALID,0,VALID,24.6099,VALID,77,VALID,0.397656,
2008-07-07, 01:06:04,VALID,1008.35,VALID,0,VALID,92.9198,VALID,0,VALID,24.5301,VALID,63,VALID,0.568359,
2008-07-07, 01:07:04,VALID,1008.36,VALID,0,VALID,92.9122,VALID,0,VALID,24.493,VALID,48,VALID,0.534375,
2008-07-07, 01:08:04,VALID,1008.35,VALID,0,VALID,93.4536,VALID,0,VALID,24.4522,VALID,35,VALID,0.788672,
2008-07-07, 01:09:04,VALID,1008.31,VALID,0,VALID,93.7205,VALID,0,VALID,24.4735,VALID,23,VALID,0.716797,
2008-07-07, 01:10:04,VALID,1008.33,VALID,0,VALID,93.873,VALID,0,VALID,24.454,VALID,45,VALID,0.70625,
2008-07-07, 01:11:04,VALID,1008.35,VALID,0,VALID,93.7053,VALID,0,VALID,24.3937,VALID,43,VALID,0.633594,
2008-07-07, 01:12:04,VALID,1008.34,VALID,0,VALID,93.6137,VALID,0,VALID,24.3352,VALID,35,VALID,0.680469,
2008-07-07, 01:13:04,VALID,1008.36,VALID,0,VALID,93.6824,VALID,0,VALID,24.3176,VALID,39,VALID,0.833594,
2008-07-07, 01:14:04,VALID,1008.36,VALID,0,VALID,93.8273,VALID,0.105969,VALID,24.2768,VALID,34,VALID,0.791406,
2008-07-07, 01:15:04,VALID,1008.32,VALID,0,VALID,93.751,VALID,0.105969,VALID,24.2183,VALID,44,VALID,0.358203,
2008-07-07, 01:16:04,VALID,1008.33,VALID,0,VALID,93.8502,VALID,0,VALID,24.2007,VALID,45,VALID,0.441406,
2008-07-07, 01:17:04,VALID,1008.32,VALID,0,VALID,93.9112,VALID,0,VALID,24.1617,VALID,49,VALID,0.502344,
2008-07-07, 01:18:04,VALID,1008.31,VALID,0,VALID,93.9035,VALID,0,VALID,24.1422,VALID,65,VALID,0.531641,
2008-07-07, 01:19:04,VALID,1008.33,VALID,0,VALID,94.0179,VALID,0.105969,VALID,24.1014,VALID,65,VALID,0.438281,
2008-07-07, 01:20:04,VALID,1008.29,VALID,0,VALID,94.0713,VALID,0.105969,VALID,24.0819,VALID,71,VALID,0.629297,
2008-07-07, 01:21:04,VALID,1008.29,VALID,0,VALID,94.2086,VALID,0.105969,VALID,24.0819,VALID,73,VALID,0.762109,
2008-07-07, 01:22:04,VALID,1008.26,VALID,0,VALID,94.2467,VALID,0.105969,VALID,24.0429,VALID,73,VALID,0.335547,
2008-07-07, 01:23:04,VALID,1008.2,VALID,0,VALID,94.2772,VALID,0.105969,VALID,24.0429,VALID,75,VALID,0.41875,
2008-07-07, 01:24:04,VALID,1008.22,VALID,0,VALID,94.3001,VALID,0,VALID,24.0448,VALID,74,VALID,0.400781,
2008-07-07, 01:25:04,VALID,1008.2,VALID,0,VALID,94.3382,VALID,0,VALID,24.004,VALID,72,VALID,0.242969,
2008-07-07, 01:26:04,VALID,1008.16,VALID,0,VALID,94.3839,VALID,0.105969,VALID,24.0253,VALID,76,VALID,0.505859,
2008-07-07, 01:27:04,VALID,1008.14,VALID,0,VALID,94.4373,VALID,0,VALID,24.004,VALID,79,VALID,0.551562,
2008-07-07, 01:28:04,VALID,1008.11,VALID,0,VALID,94.506,VALID,0,VALID,23.9845,VALID,79,VALID,0.426953,
2008-07-07, 01:29:04,VALID,1008.12,VALID,0,VALID,94.5441,VALID,0,VALID,23.9845,VALID,79,VALID,0.182812,
2008-07-07, 01:30:04,VALID,1008.11,VALID,0,VALID,94.5593,VALID,0.105969,VALID,23.9845,VALID,79,VALID,0.102344,
2008-07-07, 01:31:04,VALID,1008.09,VALID,0,VALID,94.5898,VALID,0.105969,VALID,24.004,VALID,82,VALID,0.346484,
2008-07-07, 01:32:04,VALID,1008.06,VALID,0,VALID,94.6127,VALID,0,VALID,24.004,VALID,91,VALID,0.638281,
2008-07-07, 01:33:04,VALID,1008.05,VALID,0,VALID,94.6508,VALID,0,VALID,24.0235,VALID,90,VALID,0.689062,
2008-07-07, 01:34:04,VALID,1008.01,VALID,0,VALID,94.6432,VALID,0,VALID,24.004,VALID,83,VALID,0.365234,
2008-07-07, 01:35:04,VALID,1008,VALID,0,VALID,94.6432,VALID,0.105969,VALID,24.004,VALID,83,VALID,0.427734,
2008-07-07, 01:36:04,VALID,1007.99,VALID,0,VALID,94.6814,VALID,0.105969,VALID,24.0643,VALID,82,VALID,0.581641,
2008-07-07, 01:37:04,VALID,1007.99,VALID,0,VALID,94.6966,VALID,0,VALID,24.0448,VALID,95,VALID,0.575781,
2008-07-07, 01:38:04,VALID,1007.97,VALID,0,VALID,94.689,VALID,0.105969,VALID,24.0235,VALID,96,VALID,0.336719,
2008-07-07, 01:39:04,VALID,1007.98,VALID,0,VALID,94.6585,VALID,0.105969,VALID,24.0235,VALID,96,VALID,0.234375,
2008-07-07, 01:40:04,VALID,1007.95,VALID,0,VALID,94.5975,VALID,0.105969,VALID,24.0235,VALID,63,VALID,0.516016,
2008-07-07, 01:41:04,VALID,1007.95,VALID,0,VALID,94.5212,VALID,0.105969,VALID,24.004,VALID,62,VALID,0.147656,
2008-07-07, 01:42:04,VALID,1007.93,VALID,0,VALID,94.5288,VALID,0.105969,VALID,23.9845,VALID,109,VALID,0.544531,
2008-07-07, 01:43:04,VALID,1007.94,VALID,0,VALID,94.506,VALID,0,VALID,23.9863,VALID,109,VALID,0.218359,
2008-07-07, 01:44:04,VALID,1007.92,VALID,0,VALID,94.5365,VALID,0,VALID,24.0253,VALID,108,VALID,0.589063,
2008-07-07, 01:45:04,VALID,1007.93,VALID,0,VALID,94.5822,VALID,0,VALID,24.0058,VALID,108,VALID,0.469922,
2008-07-07, 01:46:04,VALID,1007.94,VALID,0,VALID,94.567,VALID,0.105969,VALID,24.004,VALID,108,VALID,0.2,
2008-07-07, 01:47:04,VALID,1007.95,VALID,0,VALID,94.6051,VALID,0,VALID,24.0235,VALID,108,VALID,0.283594,
2008-07-07, 01:48:04,VALID,1007.96,VALID,0,VALID,94.567,VALID,0,VALID,23.9845,VALID,130,VALID,0.170703,
2008-07-07, 01:49:04,VALID,1007.96,VALID,0,VALID,94.5288,VALID,0,VALID,23.9863,VALID,130,VALID,0.0140625,
2008-07-07, 01:50:04,VALID,1007.96,VALID,0,VALID,94.445,VALID,0.105969,VALID,23.9668,VALID,130,VALID,0,
2008-07-07, 01:51:04,VALID,1007.95,VALID,0,VALID,94.4221,VALID,0.105969,VALID,23.9455,VALID,130,VALID,0,
2008-07-07, 01:52:04,VALID,1007.95,VALID,0,VALID,94.3611,VALID,0.105969,VALID,23.9278,VALID,130,VALID,0,
2008-07-07, 01:53:04,VALID,1007.94,VALID,0,VALID,94.3077,VALID,0,VALID,23.8676,VALID,130,VALID,0.2,
2008-07-07, 01:54:04,VALID,1007.97,VALID,0,VALID,94.3611,VALID,0,VALID,23.8676,VALID,130,VALID,0.154687,
2008-07-07, 01:55:04,VALID,1007.96,VALID,0,VALID,94.3458,VALID,0,VALID,23.8694,VALID,130,VALID,0.325781,
2008-07-07, 01:56:04,VALID,1007.97,VALID,0,VALID,94.3992,VALID,0.105969,VALID,23.8286,VALID,46,VALID,0.412891,
2008-07-07, 01:57:04,VALID,1008.01,VALID,0,VALID,94.3992,VALID,0.105969,VALID,23.7896,VALID,17,VALID,0.516797,
2008-07-07, 01:58:04,VALID,1008.02,VALID,0,VALID,94.445,VALID,0.105969,VALID,23.7701,VALID,17,VALID,0.413281,
2008-07-07, 01:59:04,VALID,1007.98,VALID,0,VALID,94.4373,VALID,0,VALID,23.7525,VALID,17,VALID,0.288672,
2008-07-07, 02:00:04,VALID,1007.97,VALID,0,VALID,94.4145,VALID,0,VALID,23.7153,VALID,17,VALID,0.242578,
2008-07-07, 02:01:04,VALID,1007.97,VALID,0,VALID,94.4145,VALID,0,VALID,23.655,VALID,17,VALID,0.160938,
2008-07-07, 02:02:04,VALID,1007.93,VALID,0,VALID,94.4145,VALID,0,VALID,23.6356,VALID,17,VALID,0.278516,
2008-07-07, 02:03:04,VALID,1007.92,VALID,0,VALID,94.567,VALID,0,VALID,23.6356,VALID,17,VALID,0.401953,
2008-07-07, 02:04:04,VALID,1007.93,VALID,0,VALID,94.628,VALID,0,VALID,23.6356,VALID,17,VALID,0.00585938,
2008-07-07, 02:05:04,VALID,1007.93,VALID,0,VALID,94.6051,VALID,0,VALID,23.6356,VALID,17,VALID,0,
2008-07-07, 02:06:04,VALID,1007.91,VALID,0,VALID,94.6051,VALID,0,VALID,23.5984,VALID,17,VALID,0,
2008-07-07, 02:07:04,VALID,1007.89,VALID,0,VALID,94.5898,VALID,0,VALID,23.5576,VALID,17,VALID,0,
2008-07-07, 02:08:04,VALID,1007.89,VALID,0,VALID,94.5898,VALID,0,VALID,23.5186,VALID,17,VALID,0,
2008-07-07, 02:09:04,VALID,1007.86,VALID,0,VALID,94.5975,VALID,0,VALID,23.5204,VALID,17,VALID,0,
2008-07-07, 02:10:04,VALID,1007.84,VALID,0,VALID,94.7042,VALID,0,VALID,23.5204,VALID,17,VALID,0,
2008-07-07, 02:11:04,VALID,1007.8,VALID,0,VALID,94.75,VALID,0,VALID,23.5399,VALID,17,VALID,0.0191406,
2008-07-07, 02:12:04,VALID,1007.77,VALID,0,VALID,94.8415,VALID,0,VALID,23.5381,VALID,17,VALID,0.249609,
2008-07-07, 02:13:04,VALID,1007.75,VALID,0,VALID,94.872,VALID,0,VALID,23.5594,VALID,109,VALID,0.286328,
2008-07-07, 02:14:04,VALID,1007.76,VALID,0,VALID,94.8949,VALID,0,VALID,23.5169,VALID,110,VALID,0.439844,
2008-07-07, 02:15:04,VALID,1007.76,VALID,0,VALID,94.8491,VALID,0,VALID,23.4779,VALID,110,VALID,0.390234,
2008-07-07, 02:16:04,VALID,1007.75,VALID,0,VALID,94.9178,VALID,0,VALID,23.4992,VALID,111,VALID,0.364844,
2008-07-07, 02:17:04,VALID,1007.75,VALID,0,VALID,94.9406,VALID,0,VALID,23.5186,VALID,125,VALID,0.465625,
2008-07-07, 02:18:04,VALID,1007.75,VALID,0,VALID,94.9788,VALID,0,VALID,23.5186,VALID,128,VALID,0.36875,
2008-07-07, 02:19:04,VALID,1007.75,VALID,0,VALID,95.0245,VALID,0.105969,VALID,23.5169,VALID,128,VALID,0.479297,
2008-07-07, 02:20:04,VALID,1007.75,VALID,0,VALID,95.1008,VALID,0.105969,VALID,23.5363,VALID,128,VALID,0.549219,
2008-07-07, 02:21:04,VALID,1007.74,VALID,0,VALID,95.1389,VALID,0,VALID,23.5576,VALID,135,VALID,0.599219,
2008-07-07, 02:22:04,VALID,1007.77,VALID,0,VALID,95.177,VALID,0,VALID,23.5771,VALID,127,VALID,0.465625,
2008-07-07, 02:23:04,VALID,1007.77,VALID,0,VALID,95.1847,VALID,0,VALID,23.5771,VALID,123,VALID,0.353516,
2008-07-07, 02:24:04,VALID,1007.78,VALID,0,VALID,95.1618,VALID,0,VALID,23.5558,VALID,80,VALID,0.325,
2008-07-07, 02:25:04,VALID,1007.79,VALID,0,VALID,95.0931,VALID,0,VALID,23.5381,VALID,79,VALID,0.292969,
2008-07-07, 02:26:04,VALID,1007.79,VALID,0,VALID,95.0931,VALID,0,VALID,23.5381,VALID,77,VALID,0.242578,
2008-07-07, 02:27:04,VALID,1007.8,VALID,0,VALID,94.994,VALID,0,VALID,23.4797,VALID,77,VALID,0.305859,
2008-07-07, 02:28:04,VALID,1007.81,VALID,0,VALID,94.8796,VALID,0.105969,VALID,23.4389,VALID,77,VALID,0.391016,
2008-07-07, 02:29:04,VALID,1007.85,VALID,0,VALID,94.8186,VALID,0,VALID,23.3805,VALID,77,VALID,0.317578,
2008-07-07, 02:30:04,VALID,1007.83,VALID,0,VALID,94.8644,VALID,0,VALID,23.361,VALID,77,VALID,0.378125,
2008-07-07, 02:31:04,VALID,1007.84,VALID,0,VALID,94.872,VALID,0,VALID,23.361,VALID,55,VALID,0.227734,
2008-07-07, 02:32:04,VALID,1007.85,VALID,0,VALID,94.9483,VALID,0.105969,VALID,23.4017,VALID,55,VALID,0.153125,
2008-07-07, 02:33:04,VALID,1007.83,VALID,0,VALID,94.9101,VALID,0.105969,VALID,23.361,VALID,55,VALID,0.233984,
2008-07-07, 02:34:04,VALID,1007.81,VALID,0,VALID,94.933,VALID,0,VALID,23.3805,VALID,55,VALID,0.135937,
2008-07-07, 02:35:04,VALID,1007.78,VALID,0,VALID,94.9559,VALID,0.105969,VALID,23.322,VALID,55,VALID,0.221094,
2008-07-07, 02:36:04,VALID,1007.81,VALID,0,VALID,94.9559,VALID,0,VALID,23.3026,VALID,55,VALID,0.234375,
2008-07-07, 02:37:04,VALID,1007.83,VALID,0,VALID,94.9101,VALID,0,VALID,23.2848,VALID,55,VALID,0.254297,
2008-07-07, 02:38:04,VALID,1007.83,VALID,0,VALID,94.8949,VALID,0,VALID,23.2441,VALID,55,VALID,0.0945313,
2008-07-07, 02:39:04,VALID,1007.82,VALID,0,VALID,94.9178,VALID,0,VALID,23.2654,VALID,55,VALID,0.009375,
2008-07-07, 02:40:04,VALID,1007.82,VALID,0,VALID,94.9025,VALID,0.105969,VALID,23.2459,VALID,55,VALID,0,
2008-07-07, 02:41:04,VALID,1007.88,VALID,0,VALID,94.9101,VALID,0.105969,VALID,23.1857,VALID,55,VALID,0,
2008-07-07, 02:42:04,VALID,1007.86,VALID,0,VALID,94.9025,VALID,0.105969,VALID,23.1662,VALID,55,VALID,0,
2008-07-07, 02:43:04,VALID,1007.93,VALID,0,VALID,94.9178,VALID,0,VALID,23.1662,VALID,55,VALID,0,
2008-07-07, 02:44:04,VALID,1007.93,VALID,0,VALID,94.9635,VALID,0,VALID,23.1874,VALID,55,VALID,0,
2008-07-07, 02:45:04,VALID,1007.94,VALID,0,VALID,94.9788,VALID,0.105969,VALID,23.1857,VALID,55,VALID,0.132031,
2008-07-07, 02:46:04,VALID,1007.94,VALID,0,VALID,95.0016,VALID,0,VALID,23.1485,VALID,55,VALID,0.140625,
2008-07-07, 02:47:04,VALID,1007.92,VALID,0,VALID,95.0169,VALID,0,VALID,23.129,VALID,55,VALID,0,
2008-07-07, 02:48:04,VALID,1007.92,VALID,0,VALID,95.0474,VALID,0,VALID,23.1502,VALID,55,VALID,0,
2008-07-07, 02:49:04,VALID,1007.9,VALID,0,VALID,95.055,VALID,0,VALID,23.1502,VALID,55,VALID,0,
2008-07-07, 02:50:04,VALID,1007.92,VALID,0,VALID,95.0626,VALID,0,VALID,23.1307,VALID,55,VALID,0,
2008-07-07, 02:51:04,VALID,1007.92,VALID,0,VALID,95.0703,VALID,0,VALID,23.1095,VALID,55,VALID,0,
2008-07-07, 02:52:04,VALID,1007.9,VALID,0,VALID,95.1084,VALID,0,VALID,23.0705,VALID,55,VALID,0.146875,
2008-07-07, 02:53:04,VALID,1007.94,VALID,0,VALID,95.1008,VALID,0,VALID,23.09,VALID,55,VALID,0,
2008-07-07, 02:54:04,VALID,1007.96,VALID,0,VALID,95.1313,VALID,0,VALID,23.0918,VALID,55,VALID,0,
2008-07-07, 02:55:04,VALID,1007.94,VALID,0,VALID,95.1313,VALID,0,VALID,23.0705,VALID,55,VALID,0,
2008-07-07, 02:56:04,VALID,1007.97,VALID,0,VALID,95.177,VALID,0,VALID,23.0705,VALID,55,VALID,0.0574219,
2008-07-07, 02:57:04,VALID,1007.95,VALID,0,VALID,95.2228,VALID,0,VALID,23.09,VALID,55,VALID,0,
2008-07-07, 02:58:04,VALID,1007.92,VALID,0,VALID,95.2304,VALID,0,VALID,23.09,VALID,55,VALID,0,
2008-07-07, 02:59:04,VALID,1007.9,VALID,0,VALID,95.2609,VALID,0,VALID,23.09,VALID,55,VALID,0,
2008-07-07, 03:00:04,VALID,1007.86,VALID,0,VALID,95.2609,VALID,0,VALID,23.09,VALID,55,VALID,0.0421875,
2008-07-07, 03:01:04,VALID,1007.85,VALID,0,VALID,95.2838,VALID,0,VALID,23.0918,VALID,55,VALID,0.258594,
2008-07-07, 03:02:04,VALID,1007.84,VALID,0,VALID,95.299,VALID,0,VALID,23.09,VALID,55,VALID,0.123438,
2008-07-07, 03:03:04,VALID,1007.83,VALID,0,VALID,95.3067,VALID,0,VALID,23.1112,VALID,55,VALID,0,
2008-07-07, 03:04:04,VALID,1007.8,VALID,0,VALID,95.3219,VALID,0,VALID,23.0918,VALID,55,VALID,0,
2008-07-07, 03:05:04,VALID,1007.79,VALID,0,VALID,95.2838,VALID,0,VALID,23.0705,VALID,55,VALID,0,
2008-07-07, 03:06:04,VALID,1007.8,VALID,0,VALID,95.2914,VALID,0,VALID,23.0723,VALID,55,VALID,0,
2008-07-07, 03:07:04,VALID,1007.78,VALID,0,VALID,95.2762,VALID,0,VALID,23.0528,VALID,55,VALID,0,
2008-07-07, 03:08:04,VALID,1007.77,VALID,0,VALID,95.3143,VALID,0,VALID,23.0528,VALID,55,VALID,0,
2008-07-07, 03:09:04,VALID,1007.79,VALID,0,VALID,95.3219,VALID,0,VALID,23.0511,VALID,55,VALID,0,
2008-07-07, 03:10:04,VALID,1007.79,VALID,0,VALID,95.3295,VALID,0,VALID,23.0511,VALID,55,VALID,0,
2008-07-07, 03:11:04,VALID,1007.79,VALID,0,VALID,95.3295,VALID,0,VALID,23.0528,VALID,55,VALID,0,
2008-07-07, 03:12:04,VALID,1007.8,VALID,0,VALID,95.3372,VALID,0,VALID,23.0316,VALID,55,VALID,0.148828,
2008-07-07, 03:13:04,VALID,1007.78,VALID,0,VALID,95.3295,VALID,0,VALID,23.0333,VALID,55,VALID,0,
2008-07-07, 03:14:04,VALID,1007.8,VALID,0,VALID,95.3372,VALID,0.105969,VALID,23.0298,VALID,55,VALID,0,
2008-07-07, 03:15:04,VALID,1007.79,VALID,0,VALID,95.3372,VALID,0.105969,VALID,23.0103,VALID,55,VALID,0,
2008-07-07, 03:16:04,VALID,1007.79,VALID,0,VALID,95.3295,VALID,0.105969,VALID,22.9909,VALID,55,VALID,0,
2008-07-07, 03:17:04,VALID,1007.81,VALID,0,VALID,95.3295,VALID,0,VALID,22.9926,VALID,55,VALID,0,
2008-07-07, 03:18:04,VALID,1007.77,VALID,0,VALID,95.3372,VALID,0,VALID,22.9731,VALID,55,VALID,0,
2008-07-07, 03:19:04,VALID,1007.81,VALID,0,VALID,95.3372,VALID,0.105969,VALID,22.9731,VALID,55,VALID,0,
2008-07-07, 03:20:04,VALID,1007.81,VALID,0,VALID,95.36,VALID,0.105969,VALID,22.9731,VALID,55,VALID,0,
2008-07-07, 03:21:04,VALID,1007.85,VALID,0,VALID,95.36,VALID,0,VALID,22.9324,VALID,55,VALID,0.00234375,
2008-07-07, 03:22:04,VALID,1007.87,VALID,0,VALID,95.36,VALID,0,VALID,22.9536,VALID,55,VALID,0.065625,
2008-07-07, 03:23:04,VALID,1007.9,VALID,0,VALID,95.3753,VALID,0,VALID,22.9324,VALID,55,VALID,0.169531,
2008-07-07, 03:24:04,VALID,1007.91,VALID,0,VALID,95.3905,VALID,0.105969,VALID,22.9342,VALID,55,VALID,0.220313,
2008-07-07, 03:25:04,VALID,1007.91,VALID,0,VALID,95.3677,VALID,0.105969,VALID,22.9129,VALID,55,VALID,0.276563,
2008-07-07, 03:26:04,VALID,1007.9,VALID,0,VALID,95.3448,VALID,0,VALID,22.8935,VALID,55,VALID,0.21875,
2008-07-07, 03:27:04,VALID,1007.95,VALID,0,VALID,95.3448,VALID,0.105969,VALID,22.874,VALID,55,VALID,0.053125,
2008-07-07, 03:28:04,VALID,1007.9,VALID,0,VALID,95.3448,VALID,0,VALID,22.835,VALID,55,VALID,0,
2008-07-07, 03:29:04,VALID,1007.89,VALID,0,VALID,95.3448,VALID,0,VALID,22.8545,VALID,55,VALID,0,
2008-07-07, 03:30:04,VALID,1007.87,VALID,0,VALID,95.36,VALID,0.105969,VALID,22.835,VALID,55,VALID,0,
2008-07-07, 03:31:04,VALID,1007.9,VALID,0,VALID,95.3524,VALID,0.105969,VALID,22.835,VALID,55,VALID,0,
2008-07-07, 03:32:04,VALID,1007.86,VALID,0,VALID,95.3372,VALID,0.105969,VALID,22.8562,VALID,55,VALID,0,
2008-07-07, 03:33:04,VALID,1007.87,VALID,0,VALID,95.3524,VALID,0,VALID,22.835,VALID,55,VALID,0.046875,
2008-07-07, 03:34:04,VALID,1007.88,VALID,0,VALID,95.3448,VALID,0.105969,VALID,22.8368,VALID,55,VALID,0.028125,
2008-07-07, 03:35:04,VALID,1007.86,VALID,0,VALID,95.3448,VALID,0.105969,VALID,22.7943,VALID,55,VALID,0,
2008-07-07, 03:36:04,VALID,1007.84,VALID,0,VALID,95.3829,VALID,0.105969,VALID,22.8155,VALID,55,VALID,0,
2008-07-07, 03:37:04,VALID,1007.84,VALID,0,VALID,95.3677,VALID,0.105969,VALID,22.8173,VALID,55,VALID,0,
2008-07-07, 03:38:04,VALID,1007.83,VALID,0,VALID,95.3905,VALID,0.105969,VALID,22.8155,VALID,55,VALID,0,
2008-07-07, 03:39:04,VALID,1007.83,VALID,0,VALID,95.3677,VALID,0,VALID,22.7961,VALID,55,VALID,0,
2008-07-07, 03:40:04,VALID,1007.83,VALID,0,VALID,95.3677,VALID,0.105969,VALID,22.7961,VALID,55,VALID,0,
2008-07-07, 03:41:04,VALID,1007.86,VALID,0,VALID,95.4058,VALID,0.105969,VALID,22.7978,VALID,55,VALID,0,
2008-07-07, 03:42:04,VALID,1007.85,VALID,0,VALID,95.3905,VALID,0,VALID,22.7766,VALID,55,VALID,0,
2008-07-07, 03:43:04,VALID,1007.84,VALID,0,VALID,95.3905,VALID,0,VALID,22.7766,VALID,55,VALID,0,
2008-07-07, 03:44:04,VALID,1007.83,VALID,0,VALID,95.4211,VALID,0.105969,VALID,22.7961,VALID,55,VALID,0,
2008-07-07, 03:45:05,VALID,1007.84,VALID,0,VALID,95.4211,VALID,0.105969,VALID,22.7961,VALID,55,VALID,0.203906,
2008-07-07, 03:46:05,VALID,1007.84,VALID,0,VALID,95.3905,VALID,0,VALID,22.7766,VALID,55,VALID,0.239063,